This is the latest recevied weather packets stored in our database for station/object F4FEB-13. If no packets are shown the sender has not sent any weather packets the latest 10 day(s).
| Time | Temp. | Humidity | Pressure | Rain* | Wind** | Luminosity | Snow |
|---|---|---|---|---|---|---|---|
| 1777465477 | 17.78° C | 53% | 1016.5 hPa | 0 mm | - | - | - |
| 1777465177 | 17.78° C | 53% | 1016.5 hPa | 0 mm | - | - | - |
| 1777464877 | 17.78° C | 52% | 1016.4 hPa | 0 mm | - | - | - |
| 1777464577 | 18.33° C | 51% | 1016.5 hPa | 0 mm | - | - | - |
| 1777464277 | 17.78° C | 52% | 1016.5 hPa | 0 mm | - | - | - |
| 1777463977 | 17.78° C | 52% | 1016.5 hPa | 0 mm | - | - | - |
| 1777463677 | 17.78° C | 53% | 1016.5 hPa | 0 mm | - | - | - |
| 1777463377 | 17.78° C | 52% | 1016.6 hPa | 0 mm | - | - | - |
| 1777463077 | 17.22° C | 55% | 1016.6 hPa | 0 mm | - | - | - |
| 1777462777 | 17.78° C | 54% | 1016.6 hPa | 0 mm | - | - | - |
| 1777462477 | 17.22° C | 53% | 1016.6 hPa | 0 mm | - | - | - |
| 1777462180 | 17.78° C | 56% | 1016.6 hPa | 0 mm | - | - | - |
| 1777462177 | 17.78° C | 56% | 1016.6 hPa | 0 mm | - | - | - |
| 1777461877 | 17.22° C | 56% | 1016.7 hPa | 0 mm | - | - | - |
| 1777461577 | 17.22° C | 53% | 1016.7 hPa | 0 mm | - | - | - |
| 1777461277 | 16.67° C | 53% | 1016.7 hPa | 0 mm | - | - | - |
| 1777460977 | 16.11° C | 57% | 1016.8 hPa | 0 mm | - | - | - |
| 1777460677 | 16.11° C | 57% | 1016.8 hPa | 0 mm | - | - | - |
| 1777460378 | 15.56° C | 59% | 1016.8 hPa | 0 mm | - | - | - |
| 1777460077 | 15.56° C | 59% | 1016.9 hPa | 0 mm | - | - | - |
| 1777459777 | 15.56° C | 62% | 1016.9 hPa | 0 mm | - | - | - |
| 1777459477 | 15° C | 59% | 1017.1 hPa | 0 mm | - | - | - |
| 1777459178 | 15° C | 59% | 1017.1 hPa | 0 mm | - | - | - |
| 1777458878 | 15° C | 58% | 1017.1 hPa | 0 mm | - | - | - |
| 1777458578 | 15° C | 60% | 1017.1 hPa | 0 mm | - | - | - |
* Rain latest hour (hover to see other rain measurements)
** Current wind speed in m/s (hover to see current wind gust speed)